Location: Tuolumne
(37.9608°N, 120.2374°W)
Time: 15:51:35
(UTC+00:00)

IRS-1D - Pass Details

Date: 03 August 2024
Orbit: 738 x 812 km, 98.8° (Epoch: 09 September)

Event Time Altitude Azimuth Distance (km) Brightness Sun altitude
Rises 12:27:49 0° 5° (N) 3,194 7.2 -7.7°
Reaches altitude 10° 12:30:11 10° 358° (N) 2,273 6.3 -7.3°
Maximum altitude 12:34:51 41° 289° (WNW) 1,081 4.0 -6.4°
Drops below altitude 10° 12:39:35 10° 220° (SW) 2,299 5.4 -5.6°
Enters shadow 12:41:25 - 215° (SW) 3,004 6.0 -5.3°
